Theta_e
323 324 324 324 325 325 325 325 326 326 326 326 326 327 327 327 328 328 328 329 329 329 329 329 329 329 329 330 328 328 325 327 316 313 310 312 325 328 329 332 333 332 332 320 316 313 312 312 312 313 313 314 315 311 312 314 311 312 307 303 301 301 299 301 301 302 304 302 304 304 304 302 300 304 305 306 305 303 305 305 307 308 308 308 309 311 311 310
323 324 324 324 325 325 325 325 325 325 326 326 326 327 327 328 328 328 328 328 329 328 328 329 329 329 329 329 327 327 326 328 315 313 311 318 327 328 330 331 332 330 327 314 311 310 310 309 310 311 311 309 314 310 312 312 311 308 305 303 300 301 301 304 303 304 302 302 304 304 305 303 302 302 304 301 302 304 303 303 305 304 306 307 308 309 308 307
323 323 323 323 323 323 324 324 324 325 326 326 326 327 327 327 327 328 328 329 328 328 328 328 329 329 329 327 326 323 328 322 314 309 313 327 326 327 330 330 329 326 319 311 312 311 308 309 310 310 311 308 311 308 309 310 308 308 304 301 301 303 302 304 304 303 304 304 302 302 304 303 303 303 305 301 301 303 300 300 302 302 302 304 306 306 305 305
323 322 323 323 323 323 323 323 324 324 325 325 326 327 327 326 327 328 328 328 328 327 328 328 328 329 328 326 325 329 328 323 308 311 315 326 326 328 328 330 325 321 317 313 311 312 311 311 311 311 310 308 310 309 306 308 307 308 302 302 302 303 302 303 303 304 304 304 302 302 303 302 303 303 302 301 301 300 301 303 301 301 302 303 304 304 304 303
322 322 322 322 322 322 322 322 324 324 325 326 327 327 327 326 327 327 327 328 328 328 328 328 329 327 327 324 323 328 324 309 307 314 314 325 324 327 327 329 324 318 312 312 311 312 313 311 311 310 310 304 308 308 305 307 305 304 302 304 304 303 302 303 303 304 303 303 302 302 301 301 304 304 302 301 299 297 301 303 303 303 304 302 301 302 302 301
322 321 321 321 321 321 321 321 323 324 325 326 327 327 327 327 326 326 326 326 327 328 328 328 328 328 325 321 327 328 316 301 311 316 323 322 325 327 325 327 326 319 315 312 312 313 312 311 309 307 304 304 304 302 305 305 305 300 304 304 304 303 301 303 303 302 302 301 301 300 302 302 301 301 302 302 300 302 305 304 304 304 303 302 302 301 300 300
321 321 321 320 320 320 320 321 322 324 325 326 327 327 328 329 326 325 325 326 327 328 328 328 328 327 325 322 325 323 312 310 314 319 322 321 324 327 326 327 329 317 315 312 312 311 310 309 307 305 304 305 305 303 305 304 305 301 301 303 302 303 301 303 302 302 302 301 300 302 303 300 301 298 302 301 303 304 305 305 305 303 302 302 300 299 299 299
320 320 320 319 319 319 319 321 322 323 325 326 327 327 327 326 325 325 325 326 328 328 328 328 328 325 324 329 329 313 313 309 313 317 319 322 318 316 323 319 315 316 313 310 310 310 309 308 304 306 305 302 304 302 305 303 304 301 302 303 301 302 302 302 302 301 301 301 302 302 300 300 301 300 302 300 303 304 304 304 302 301 301 300 299 298 298 298
320 319 319 318 318 318 319 321 322 322 324 325 326 327 327 325 324 324 325 326 328 328 328 327 326 324 323 325 315 310 308 316 313 314 317 314 312 313 319 314 315 312 311 312 312 311 311 307 307 306 302 303 305 301 304 300 300 302 301 302 302 302 302 302 301 301 300 301 302 300 300 302 301 302 300 302 303 304 304 302 300 299 299 298 298 297 298 297
320 319 319 318 317 318 319 320 321 322 324 325 326 325 327 324 323 324 326 327 327 327 328 327 324 321 328 323 314 307 314 313 313 316 314 312 314 314 315 316 314 313 311 311 312 310 308 308 307 308 308 305 305 301 303 301 300 302 301 301 301 301 301 301 300 301 301 300 301 298 298 300 302 300 296 302 303 303 301 300 299 298 297 297 297 297 298 297
320 319 319 318 318 318 319 319 320 322 323 324 325 326 323 324 323 324 326 327 328 327 327 326 324 325 322 317 310 306 319 316 316 317 314 315 314 312 313 313 312 315 312 312 311 310 310 309 310 308 306 303 302 302 302 302 302 301 301 300 301 302 302 301 301 300 301 298 300 300 298 300 301 299 299 301 303 303 299 298 298 297 297 297 297 296 297 296
319 319 319 319 318 318 318 318 320 321 322 324 323 323 322 323 323 324 326 327 328 327 326 323 320 325 318 313 310 310 313 313 314 317 316 315 313 314 315 311 313 315 311 310 312 313 312 311 310 306 301 306 301 303 302 303 301 300 299 297 299 300 298 300 299 300 301 298 300 300 298 298 298 298 301 303 304 302 299 297 297 296 296 296 296 296 296 296
319 318 318 318 318 317 317 319 320 321 322 323 322 322 322 322 323 324 326 326 327 327 325 323 323 328 321 308 309 315 314 314 313 312 317 316 314 313 314 314 314 313 313 311 311 313 311 310 309 306 307 304 302 298 301 300 300 301 299 298 299 297 296 299 301 300 299 298 300 300 290 295 298 299 302 303 302 300 297 296 296 296 295 295 295 295 295 295
318 317 317 318 317 317 318 318 319 320 322 322 322 323 322 322 323 325 327 325 326 325 321 323 325 326 313 306 313 315 314 315 313 315 315 316 314 317 315 315 315 313 315 312 311 312 311 308 308 307 307 303 299 308 301 300 300 298 299 298 297 296 294 300 299 299 298 300 300 300 290 293 298 299 302 303 302 298 295 294 295 295 294 294 295 294 294 295
317 317 317 317 317 317 316 317 319 320 321 322 322 321 321 321 323 325 327 325 325 324 324 322 331 323 310 308 313 317 320 314 313 315 316 312 312 314 315 311 312 311 310 310 312 309 308 309 307 304 302 305 304 301 299 299 299 300 296 294 298 294 295 297 300 298 296 298 301 297 291 293 296 298 301 301 299 297 294 294 294 294 294 293 294 293 293 294
317 317 317 317 317 316 316 317 318 319 320 322 320 320 319 321 323 326 324 326 322 320 324 331 318 319 308 305 313 321 318 312 311 315 316 313 312 311 312 310 310 312 310 308 309 307 308 309 304 305 301 303 301 299 298 298 298 299 296 293 293 294 294 295 298 299 298 297 299 296 290 294 295 299 299 300 297 295 294 293 293 293 293 293 293 293 293 293
317 317 316 316 316 316 316 316 318 319 320 319 319 319 320 321 320 324 324 321 322 327 329 315 314 313 305 311 313 309 309 313 318 316 314 313 310 310 309 310 308 308 310 308 307 307 307 304 304 304 301 300 300 299 294 292 295 296 297 293 294 291 293 291 296 297 299 296 293 297 294 295 296 298 297 298 297 294 293 292 292 292 292 293 293 293 292 293
317 316 316 316 315 315 315 316 318 319 319 318 318 320 322 323 318 323 326 326 323 321 318 317 320 312 304 312 306 307 311 311 317 313 314 312 310 309 308 305 308 307 307 306 307 305 306 301 304 299 301 300 298 295 292 288 292 291 292 291 291 292 292 291 292 295 297 295 293 294 294 294 295 296 296 295 296 294 292 292 292 291 292 292 292 292 292 292
316 316 316 315 315 315 315 317 318 319 319 320 323 325 324 318 324 321 316 316 316 313 309 310 309 304 304 305 310 311 312 313 313 311 309 309 311 310 308 308 307 305 304 303 303 304 303 301 305 301 296 296 294 294 293 294 293 292 292 291 290 290 291 292 295 297 295 293 292 293 291 292 294 295 294 295 295 293 292 292 291 291 291 292 291 291 292 292
315 315 315 315 314 315 315 317 319 318 319 320 324 327 322 310 313 312 312 312 308 307 308 309 308 307 309 308 310 313 314 312 306 310 311 311 309 307 305 305 306 307 302 300 300 302 302 296 294 294 296 293 295 296 295 295 294 293 293 293 291 291 293 295 296 296 296 292 292 292 293 292 293 294 293 294 293 292 291 290 290 290 291 291 291 290 291 291
315 315 314 314 314 314 316 317 319 317 318 323 324 309 301 302 303 301 302 306 309 311 306 308 307 307 308 309 313 309 305 307 307 308 308 309 307 303 303 303 303 302 303 299 299 300 300 296 297 297 294 294 295 296 295 294 294 293 293 292 292 293 290 295 294 296 297 291 290 293 291 292 293 294 293 293 292 290 290 289 289 289 290 290 290 290 291 291
315 314 314 314 313 315 316 317 318 317 319 324 316 305 306 303 308 310 305 303 310 308 309 309 306 307 310 309 311 309 307 304 306 307 313 309 306 303 303 302 300 299 301 300 300 301 296 295 297 294 295 295 295 295 294 293 293 294 292 292 291 291 294 294 294 296 295 292 290 292 290 291 292 294 294 292 290 290 290 290 289 289 289 290 290 290 290 291
314 314 313 313 314 315 316 316 318 315 320 316 312 312 309 313 313 314 310 305 305 312 308 308 308 307 307 308 307 307 304 301 300 305 304 307 304 301 301 299 299 299 299 299 295 293 291 296 293 295 296 294 294 294 294 294 295 294 294 291 289 293 290 287 293 294 294 292 289 291 289 290 293 294 293 292 291 291 292 291 291 291 289 289 289 289 289 288
313 313 313 312 314 315 315 316 315 317 315 313 311 310 314 314 315 311 310 305 304 307 308 308 308 308 307 305 307 305 303 302 300 300 306 305 300 301 301 298 297 299 297 295 294 292 292 295 294 295 296 294 293 295 295 293 291 294 295 292 291 291 290 289 289 292 293 293 292 291 288 288 291 289 288 291 293 292 290 290 290 290 291 291 291 290 290 288
313 313 312 313 313 315 315 314 314 311 312 314 309 312 313 314 313 313 306 304 305 305 310 311 313 312 307 310 310 303 303 301 302 302 304 305 300 300 298 298 297 298 298 296 293 293 294 294 296 294 296 295 295 293 294 294 289 291 295 292 291 290 289 290 291 289 288 287 291 288 280 283 289 290 289 290 291 288 289 288 288 288 289 289 288 288 289 290
312 312 312 312 314 314 314 314 316 315 314 310 312 313 313 313 313 312 304 299 297 304 306 302 314 305 313 304 309 306 301 299 301 303 302 302 303 298 299 299 297 294 296 295 294 294 292 293 296 296 294 295 295 293 295 293 290 288 289 290 291 290 290 289 288 288 283 281 288 290 280 278 287 287 289 289 288 287 287 287 287 288 288 288 288 288 288 288
312 312 312 313 314 314 317 310 313 315 313 315 311 315 313 312 314 311 303 299 295 305 302 306 306 306 310 306 305 303 296 299 301 301 302 303 298 305 296 299 297 297 295 296 292 291 292 293 293 294 293 294 292 290 295 293 290 287 291 293 289 290 288 288 288 288 285 290 290 289 287 280 280 287 292 290 287 286 286 286 287 287 287 287 287 287 288 288
312 311 312 312 313 313 314 314 313 311 304 312 314 312 313 313 312 312 303 288 288 305 302 302 306 310 309 304 304 300 299 300 297 297 299 302 302 299 297 296 296 296 295 293 286 296 292 293 292 293 292 291 290 294 293 294 290 289 290 290 288 288 289 289 288 287 287 284 280 285 289 281 281 287 291 289 285 284 284 284 285 286 286 286 287 287 288 288
311 311 312 312 312 312 315 315 312 311 313 310 312 311 312 312 310 304 297 286 304 302 309 302 310 306 304 302 300 301 300 301 297 297 301 300 302 298 296 296 294 294 294 293 289 294 294 292 293 292 290 289 293 291 293 293 290 291 291 291 291 291 291 291 288 286 285 281 277 282 287 280 280 287 287 288 286 285 284 284 285 285 286 286 286 287 287 288
310 311 311 312 311 315 314 314 313 312 312 312 309 311 312 309 307 298 293 285 305 296 302 303 303 301 304 300 301 299 298 298 298 299 298 297 299 302 295 297 295 293 293 294 292 293 293 295 294 291 291 294 291 290 292 289 290 291 291 291 290 290 289 288 287 285 282 277 280 285 286 283 276 283 285 285 285 284 284 285 285 286 286 286 286 287 287 287
310 311 311 310 311 314 311 308 310 312 311 311 311 311 310 308 298 292 285 294 299 302 301 301 300 303 299 298 299 298 300 298 298 297 297 296 296 297 296 294 296 292 289 291 290 292 293 294 293 294 295 293 293 291 293 292 293 291 289 287 286 286 287 285 284 285 277 276 282 284 284 284 273 280 285 286 285 285 284 283 283 284 285 285 286 286 287 287
309 311 309 311 313 311 308 309 312 311 311 310 311 306 303 294 300 287 289 300 293 300 299 299 300 300 298 299 296 299 299 300 298 296 296 295 295 295 295 292 294 288 289 288 288 289 288 290 293 293 293 293 292 290 292 292 292 291 288 287 281 278 280 277 281 275 277 276 281 282 281 277 278 282 285 283 284 284 285 285 284 284 284 285 285 286 286 287
310 309 307 309 310 311 311 313 313 312 311 309 308 306 298 294 285 295 294 299 295 303 299 302 300 299 299 296 297 300 296 295 298 295 294 294 291 295 293 292 293 291 286 290 288 288 289 290 291 292 291 293 294 287 289 287 288 287 286 283 279 276 275 272 275 278 278 282 283 281 282 275 281 283 287 285 285 285 285 286 285 285 284 284 285 286 286 287
311 309 311 311 311 312 313 312 313 312 308 308 306 301 298 289 287 298 298 299 300 299 300 299 297 297 296 295 299 297 295 298 296 294 292 292 291 291 292 291 291 291 290 288 285 286 284 285 287 289 287 292 292 291 288 287 286 286 287 284 281 279 275 270 274 272 274 276 279 282 276 275 276 281 287 286 286 286 286 286 286 286 286 286 286 286 286 286
309 310 311 312 310 310 311 312 311 312 311 306 297 296 289 289 293 293 294 298 300 298 296 298 297 297 296 296 298 294 296 294 294 292 291 291 290 291 292 292 292 292 293 285 290 286 285 286 289 289 288 289 289 289 290 288 287 286 287 287 281 279 284 275 277 275 274 273 273 277 275 281 281 286 286 286 286 286 286 286 285 284 285 285 285 285 285 285
308 311 311 310 311 312 311 312 312 311 311 299 295 290 289 292 290 297 295 301 299 298 298 297 297 294 294 295 295 294 296 294 293 291 292 291 293 292 295 293 291 292 290 287 291 285 287 284 286 288 289 286 285 288 289 291 280 284 284 281 282 285 282 277 277 280 276 275 272 279 278 282 287 286 284 285 284 284 285 285 284 284 284 284 284 284 284 285
307 311 308 312 311 313 311 312 312 310 308 297 293 289 295 293 300 300 302 298 298 299 297 291 294 293 293 293 294 292 292 291 291 290 290 292 289 292 291 292 294 293 294 292 288 293 283 285 286 287 284 286 287 287 288 287 289 285 280 282 285 286 281 277 271 274 273 270 272 278 275 277 278 274 283 284 281 283 283 283 283 283 284 283 283 284 284 284
308 307 307 309 314 313 312 312 312 310 303 295 291 293 300 295 300 300 304 298 297 299 295 293 294 298 292 293 294 293 292 291 293 290 290 292 291 295 292 290 292 293 292 291 287 287 287 281 285 287 286 284 286 287 285 286 287 284 282 286 279 274 273 278 273 267 269 269 271 275 277 277 277 277 280 281 280 281 282 282 282 282 282 282 283 283 284 284
307 303 304 310 313 313 312 312 311 305 296 292 292 291 298 298 301 300 301 301 301 299 293 295 293 297 296 293 295 292 292 290 293 289 288 291 287 292 292 293 289 290 289 290 286 286 289 279 281 283 284 285 285 286 279 281 285 285 285 282 286 279 276 273 276 274 274 269 270 271 275 271 280 280 281 281 281 281 281 281 281 281 282 282 282 283 283 283
302 299 303 308 312 312 312 312 307 300 294 291 294 295 303 296 298 301 301 300 298 296 295 295 297 293 296 296 296 293 295 292 293 292 290 293 291 293 291 293 291 288 288 288 286 290 283 286 277 281 283 283 278 283 281 283 279 280 280 279 279 279 280 279 277 273 272 269 269 268 267 274 279 281 281 280 281 281 281 281 281 282 282 283 283 283 283 283
305 301 302 308 311 312 312 309 299 293 292 295 298 298 299 297 299 298 299 301 302 302 298 297 296 294 296 295 294 296 293 292 291 290 290 290 291 288 292 292 291 286 287 284 284 285 281 282 278 279 278 278 281 284 283 283 285 282 280 278 279 276 274 271 270 278 271 271 268 268 267 274 281 283 282 282 282 282 283 282 281 282 282 282 283 283 283 283
300 297 300 308 311 311 307 296 295 298 295 294 295 298 296 300 298 299 298 300 300 298 300 296 298 297 296 295 296 296 293 291 290 289 290 289 293 293 291 293 290 288 286 282 282 287 284 282 281 278 280 280 282 282 284 284 282 283 282 279 282 280 278 274 268 272 272 273 274 272 268 270 281 283 282 283 283 283 283 282 281 282 282 282 283 283 284 284
299 301 303 308 310 308 303 296 298 297 294 298 302 300 303 298 297 300 297 299 295 298 297 296 295 294 296 295 296 294 294 290 291 288 292 292 291 286 289 290 289 287 286 281 282 282 287 280 277 279 282 279 280 282 283 283 282 279 281 281 279 277 278 275 275 276 272 272 270 270 268 272 281 283 284 283 284 284 283 283 282 282 282 282 282 282 283 284
301 302 300 307 309 307 300 293 294 295 296 299 298 298 303 298 298 298 297 298 296 297 295 295 297 297 295 298 295 293 295 287 293 291 290 292 289 284 287 287 288 284 285 283 282 285 279 281 277 275 276 277 275 278 278 280 280 278 277 279 280 280 279 279 278 277 270 272 272 269 264 270 280 284 284 283 284 283 282 282 283 281 282 282 282 283 283 283
301 303 302 302 305 304 296 300 299 298 296 296 296 294 296 296 300 299 298 297 299 298 297 295 297 297 295 297 294 295 294 293 290 293 291 289 286 282 283 285 283 283 283 283 286 287 282 280 278 273 271 270 271 271 272 272 275 277 279 279 280 278 277 275 271 273 269 272 273 269 269 276 281 283 282 283 283 282 282 282 283 283 282 281 282 282 282 283
298 294 297 297 300 299 298 300 298 298 297 297 295 297 298 295 298 300 300 298 300 299 298 298 295 297 295 291 289 289 290 294 292 288 286 285 281 282 281 283 281 283 284 286 285 285 280 280 280 280 278 277 280 279 278 281 278 273 277 278 278 279 279 277 276 272 269 272 271 273 274 274 276 278 280 281 281 280 280 281 281 281 282 282 283 282 282 282
305 298 295 290 297 296 294 298 297 297 294 300 294 299 296 296 298 297 302 295 299 298 298 297 295 292 291 290 289 289 291 290 291 290 287 284 282 280 283 282 282 282 284 285 285 283 279 275 278 279 279 280 281 280 280 279 276 277 276 276 278 278 278 275 272 270 275 271 267 274 276 273 275 278 280 280 280 280 281 280 281 281 281 281 281 282 283 281
294 300 302 302 297 292 290 292 296 295 297 298 295 300 296 296 296 294 298 299 298 300 294 295 295 294 294 291 291 287 289 288 288 285 286 283 279 280 279 283 280 284 284 283 286 281 277 275 279 279 278 280 281 280 280 278 278 277 277 277 276 277 276 274 274 275 275 271 269 274 276 274 276 278 280 280 280 280 280 280 281 282 282 282 281 281 280 280
303 300 302 306 298 300 298 297 297 295 295 297 295 297 295 296 295 298 295 293 294 293 296 290 293 293 293 293 292 289 291 283 283 287 286 283 281 279 278 279 282 282 283 280 281 282 279 276 278 279 277 278 279 279 279 277 277 277 277 277 277 276 276 276 275 276 276 274 275 275 275 275 277 279 280 281 282 281 281 282 282 281 281 281 281 280 280 280
297 297 294 300 302 301 302 300 297 296 293 296 292 295 296 296 295 298 298 295 289 291 296 292 294 294 292 292 292 290 291 291 290 288 286 282 281 282 280 281 278 281 281 279 280 280 278 274 277 276 274 275 277 278 278 277 276 275 277 278 277 277 276 277 277 277 277 275 276 276 274 274 279 282 282 283 282 282 281 280 280 281 281 280 280 279 279 279
307 307 304 298 295 298 300 300 298 296 293 295 293 295 296 296 295 299 298 299 296 293 293 291 294 294 294 293 292 291 294 292 289 288 285 285 281 284 281 281 282 278 279 277 279 277 279 275 279 276 273 273 277 277 277 278 277 276 275 276 276 276 274 276 275 277 276 274 275 275 273 274 279 282 282 281 281 280 279 280 280 280 281 280 279 279 279 278
309 307 308 303 295 298 296 298 298 297 291 296 296 296 296 296 298 299 295 300 299 300 297 295 295 293 292 292 290 291 291 286 285 286 288 286 287 286 287 284 284 281 278 278 280 277 278 276 274 275 272 272 276 277 274 274 273 270 272 275 277 277 277 278 278 279 278 278 274 272 273 279 280 281 279 279 280 280 280 280 280 280 280 280 279 279 278 277
Wind_Speed
18 18 17 17 18 17 17 15 15 15 14 14 14 14 13 13 13 14 14 13 13 13 13 13 12 11 9 9 9 11 10 1 13 14 15 6 7 14 16 15 15 15 14 10 8 3 4 2 4 2 4 5 2 2 2 1 3 3 4 4 3 3 4 4 3 3 7 9 8 10 9 7 10 9 7 7 6 9 7 6 9 5 8 13 14 15 13 13
18 17 18 18 18 19 18 16 15 14 13 14 14 14 13 13 12 13 13 12 12 12 12 11 12 11 9 8 9 8 7 3 12 16 10 4 9 12 14 15 14 13 13 6 8 7 7 5 6 7 5 4 3 1 1 1 1 3 4 4 3 4 5 2 2 3 8 9 11 10 8 4 8 9 8 9 10 6 9 11 10 13 14 14 14 16 16 16
18 18 19 19 20 19 19 17 16 14 14 14 13 14 14 12 11 12 13 12 12 12 11 11 10 9 9 7 8 3 3 5 5 13 8 8 11 12 13 13 12 12 7 7 5 6 6 7 6 8 4 6 2 1 1 1 4 0 4 5 6 5 4 2 1 4 7 11 11 10 8 9 5 6 7 6 11 7 13 10 12 16 17 18 16 17 16 17
19 19 19 19 20 20 20 19 17 15 14 15 13 13 14 15 14 12 12 12 11 11 11 10 9 8 8 7 3 5 3 6 7 5 8 11 12 12 12 11 10 11 7 5 5 4 3 5 5 5 6 6 2 2 4 3 3 3 4 4 5 4 2 5 3 3 9 9 10 10 10 9 5 6 5 7 6 10 10 12 14 15 15 14 16 16 16 18
19 20 20 20 20 21 21 20 19 18 16 14 14 14 12 16 15 13 12 11 11 10 10 9 8 8 7 3 4 4 3 5 3 2 7 10 12 12 11 9 9 8 7 7 6 5 6 6 6 4 4 4 0 3 1 3 2 3 3 7 5 2 1 4 2 5 8 10 9 8 10 7 8 3 3 6 6 8 9 11 13 13 14 14 14 15 16 18
20 20 20 20 21 21 22 22 20 20 19 16 13 12 11 14 15 14 14 13 11 9 9 8 8 7 6 5 5 4 4 2 3 3 5 9 11 12 10 9 9 7 7 8 7 7 6 4 6 2 4 5 2 5 5 2 1 4 5 4 5 5 3 3 2 3 7 9 8 9 6 8 7 4 6 4 9 9 9 11 11 13 14 13 14 14 16 16
19 20 19 20 21 21 22 22 21 21 20 17 14 11 11 11 15 14 14 12 11 9 7 9 8 7 4 4 4 3 5 4 2 4 7 10 11 11 9 8 9 6 7 7 7 7 7 6 5 4 5 4 2 3 2 4 2 3 2 5 6 4 2 0 3 4 6 8 9 8 10 10 6 3 3 8 9 8 10 11 12 13 13 13 14 15 15 15
19 19 19 20 20 21 22 22 22 22 20 18 15 12 12 13 15 13 12 12 10 9 8 8 8 7 3 3 3 4 3 4 6 5 8 8 10 8 6 5 6 6 4 5 7 7 7 5 6 5 4 4 3 4 4 8 5 4 3 6 4 1 2 0 3 3 4 6 7 10 11 7 3 2 1 9 9 11 13 13 12 12 13 13 14 14 14 15
19 19 19 20 20 20 21 21 22 22 21 20 17 14 13 14 15 13 11 11 10 9 8 8 8 8 5 5 3 3 4 3 4 7 10 9 7 6 7 3 8 5 3 3 3 5 7 4 4 4 3 2 3 7 1 5 3 1 5 7 2 2 3 2 2 1 1 2 8 12 9 5 4 2 6 8 9 13 14 12 12 12 13 12 13 13 14 15
20 19 19 20 21 21 22 22 21 21 22 22 19 15 12 15 14 12 10 9 10 10 8 7 8 5 4 5 3 3 3 4 2 5 10 7 7 4 6 6 7 6 4 4 4 7 5 4 4 3 4 5 2 5 2 5 2 2 7 7 6 3 3 4 4 4 4 3 10 11 12 4 4 5 6 6 9 14 14 12 11 11 12 12 11 11 12 13
20 19 19 20 21 21 22 23 22 22 22 21 21 15 15 15 14 11 9 9 9 9 8 8 8 4 2 5 6 1 2 2 3 5 10 7 6 6 6 7 7 5 5 2 4 4 4 3 2 1 2 3 3 4 4 1 3 6 7 9 9 7 7 6 6 8 5 2 9 10 13 7 4 6 5 6 10 12 13 12 11 11 11 10 11 12 11 12
19 19 19 20 20 21 22 22 22 22 22 22 23 21 17 14 14 9 8 9 7 7 7 8 9 3 3 4 5 4 2 2 3 4 6 7 3 4 5 4 6 5 5 4 3 3 3 4 2 4 3 1 3 4 4 2 3 5 4 5 4 12 9 3 5 7 6 4 8 8 13 7 7 5 5 10 7 11 13 12 11 11 10 9 9 10 11 12
18 18 19 19 20 21 22 23 22 22 23 23 23 23 18 13 12 7 8 8 3 6 7 7 9 2 4 2 4 3 2 3 2 4 6 3 1 1 2 3 3 3 4 4 3 2 2 2 3 6 1 4 5 4 4 2 5 4 5 3 4 11 6 7 3 7 5 3 7 9 6 7 6 7 4 4 6 11 13 11 9 8 8 8 8 8 10 11
17 18 18 18 19 20 21 22 22 22 23 23 24 23 19 13 10 7 6 5 6 4 6 8 4 4 1 5 3 2 3 3 4 4 7 7 5 1 2 1 1 2 2 2 2 1 2 2 4 5 2 5 4 3 4 4 4 3 5 2 1 4 4 6 2 5 5 2 6 8 7 7 6 7 3 7 13 11 12 10 9 7 7 7 7 8 9 11
16 17 18 19 19 20 20 22 22 22 23 22 21 23 19 13 8 6 6 6 3 5 7 8 3 3 2 3 2 4 3 1 2 6 5 9 8 3 2 6 3 2 2 1 1 1 2 2 2 5 3 4 5 6 6 6 5 4 4 3 2 3 2 10 3 5 5 5 6 10 6 7 11 6 14 16 13 13 11 9 8 7 7 7 6 8 8 9
16 17 18 18 19 20 20 21 22 24 23 22 23 25 19 9 6 4 3 3 3 5 4 2 2 3 3 4 2 2 2 3 5 5 2 4 5 4 7 6 5 3 3 2 1 1 4 4 5 3 5 5 6 6 8 6 6 4 2 4 3 4 3 3 7 6 8 7 4 3 6 9 6 11 11 12 16 12 11 9 7 7 7 6 6 6 7 8
15 16 17 18 19 19 20 20 22 22 22 23 25 24 18 4 5 5 2 4 2 1 2 1 1 1 4 3 1 3 2 2 2 3 6 1 4 4 7 5 4 4 3 3 3 3 5 5 2 3 5 4 4 6 7 4 4 4 6 5 5 6 5 6 6 3 4 6 8 6 7 8 11 11 15 10 13 13 10 9 8 6 5 5 5 6 8 9
15 15 17 18 20 19 19 20 21 23 23 25 24 19 17 10 4 2 4 4 1 2 2 1 2 1 3 3 2 2 1 4 5 6 7 3 1 5 3 5 2 4 4 5 5 6 2 4 5 6 3 2 6 7 5 6 4 6 7 7 7 7 9 9 8 5 1 4 8 5 6 10 10 5 10 12 11 11 11 8 6 6 5 5 6 7 9 10
14 15 16 17 19 19 19 20 21 21 22 22 22 20 9 2 3 2 3 7 2 1 2 2 3 5 3 2 1 2 3 3 5 4 4 7 4 5 4 6 5 5 5 6 3 7 3 6 6 6 5 5 6 4 2 5 5 7 7 8 9 8 5 7 6 6 5 6 6 5 10 11 11 5 9 10 9 11 10 8 6 3 5 5 6 7 8 9
14 16 16 17 18 18 19 19 20 20 19 15 10 8 2 8 3 4 6 8 6 2 5 10 1 4 4 2 3 6 2 0 2 3 2 1 5 5 7 5 6 6 5 6 10 2 3 5 6 5 3 5 5 3 4 5 6 7 7 8 10 11 9 7 2 5 5 5 6 10 13 12 12 10 12 10 10 10 8 7 5 4 3 5 5 7 7 9
14 15 17 17 17 17 18 19 19 18 19 9 11 6 6 6 7 8 9 3 3 3 3 1 3 5 4 3 2 7 1 4 4 2 4 3 2 5 0 5 5 8 4 3 6 1 2 7 2 4 3 5 5 3 3 6 6 7 8 9 9 8 10 6 8 6 2 4 8 9 13 15 13 1 12 10 9 8 8 6 6 5 6 6 6 6 7 8
13 15 16 17 16 16 18 17 17 17 16 5 8 6 4 4 3 3 3 6 2 4 2 3 1 4 2 2 3 1 1 3 7 1 2 8 1 5 4 6 6 8 8 7 5 4 6 8 4 3 3 1 3 3 4 6 8 7 8 8 8 7 9 9 3 4 6 9 7 8 13 12 11 13 10 9 9 7 6 6 6 6 5 5 6 6 8 10
12 14 16 17 16 16 16 17 12 16 6 5 5 5 3 2 3 1 3 5 9 3 2 3 4 4 3 2 2 2 2 3 1 4 7 9 3 2 6 5 8 7 9 3 7 7 6 1 3 2 1 2 4 5 5 8 8 7 6 7 8 8 8 3 2 9 12 9 9 8 11 12 7 10 9 8 8 8 6 6 5 3 4 5 8 8 9 12
12 14 15 16 17 15 16 14 14 7 7 7 8 5 2 2 2 3 3 5 7 3 2 1 3 2 1 1 2 3 5 2 2 2 7 6 4 4 5 5 10 8 7 3 5 7 10 6 3 2 2 3 5 5 7 6 7 7 5 7 7 6 7 6 11 13 11 2 5 8 12 10 10 9 8 7 7 6 6 5 5 4 4 5 5 7 9 12
12 13 14 16 17 16 15 13 3 3 3 1 5 2 2 2 3 3 3 5 4 4 1 2 2 2 2 1 2 3 2 0 1 4 4 6 5 5 3 2 3 8 6 3 5 8 11 3 2 2 2 2 5 7 4 2 8 8 4 4 4 5 9 10 12 15 9 6 7 15 11 5 8 13 13 10 7 8 5 3 3 3 5 6 7 10 10 9
10 13 14 15 17 17 12 3 3 0 0 3 2 2 1 1 3 3 3 4 6 3 2 4 2 2 1 3 1 1 2 3 4 3 2 4 2 2 4 3 1 10 5 4 8 6 5 2 1 2 2 4 5 7 2 1 7 7 2 2 3 6 7 10 12 10 9 9 8 8 5 11 4 9 13 11 12 10 6 4 3 4 5 6 8 9 10 11
9 12 13 14 15 17 5 2 2 2 2 3 2 1 1 1 1 3 3 3 6 4 2 3 2 1 2 3 2 2 5 3 2 3 1 1 1 1 4 7 3 2 2 3 3 3 2 1 1 1 4 5 6 8 4 4 4 7 4 4 6 7 9 10 10 7 10 11 12 9 9 11 9 10 11 13 11 9 5 2 4 4 5 8 10 11 12 13
8 11 12 13 14 11 4 2 1 1 3 3 2 1 0 1 2 3 2 4 2 2 2 4 2 1 2 3 0 5 4 1 4 3 2 2 3 3 4 11 10 10 1 1 9 3 3 0 2 4 2 4 7 3 2 0 4 3 5 3 6 7 9 9 7 9 11 11 10 6 7 7 7 4 11 11 11 12 5 1 4 5 8 11 12 12 13 14
7 10 11 11 13 13 8 4 5 1 3 3 2 1 1 2 3 3 2 5 2 2 3 3 1 2 2 3 5 5 3 3 5 3 1 2 1 3 6 2 4 3 1 6 11 4 2 4 3 2 2 6 4 3 4 0 6 3 5 6 8 8 9 8 8 10 9 5 12 8 8 7 11 5 8 10 10 8 1 3 4 7 10 11 11 13 15 17
6 8 10 10 8 4 3 2 2 3 3 3 2 3 3 3 3 3 1 6 3 3 1 3 3 1 1 5 5 6 7 3 1 1 3 2 3 3 1 1 5 4 7 7 10 8 2 2 0 3 4 2 1 3 2 2 3 6 5 8 7 7 8 9 7 8 6 8 12 10 8 8 8 7 9 8 3 4 1 3 4 8 9 11 12 14 16 16
5 7 7 9 3 4 3 3 4 4 3 3 4 4 4 2 3 3 5 1 2 1 1 4 1 0 3 4 6 6 4 2 3 1 4 4 3 4 3 3 3 4 4 5 5 8 5 3 3 0 2 2 2 3 2 4 5 5 4 5 9 8 5 8 5 2 4 8 2 4 7 4 6 2 3 5 7 6 2 4 6 9 11 12 13 15 15 16
4 4 5 5 3 3 3 2 5 5 4 4 4 3 3 5 5 7 5 5 4 3 3 3 2 0 0 1 2 5 5 4 3 3 5 1 4 5 3 6 3 7 6 3 2 4 4 7 2 4 1 4 4 5 5 4 5 5 5 5 5 8 7 4 5 5 7 7 5 8 4 7 14 11 1 9 7 5 4 4 6 9 12 15 16 17 15 14
3 1 2 2 2 3 1 2 5 5 5 4 3 3 5 3 6 8 7 3 2 2 3 2 2 1 2 2 8 3 5 6 4 2 2 0 2 6 3 3 2 3 9 4 7 7 3 5 4 5 3 4 4 5 4 4 5 4 4 1 3 6 4 9 6 6 8 3 7 3 7 10 13 14 20 9 7 5 4 5 7 10 13 15 15 16 15 15
3 4 3 2 2 3 0 3 3 6 6 4 3 4 4 4 7 6 3 3 2 1 3 1 1 2 3 6 4 4 7 5 3 2 2 3 4 6 3 4 6 4 4 8 8 4 9 6 7 8 3 5 5 4 4 5 1 1 3 3 3 4 3 7 4 7 7 7 6 2 5 4 5 6 11 13 5 5 5 5 7 10 12 13 13 15 16 16
4 3 2 2 4 4 5 5 5 7 4 3 5 7 7 10 4 6 5 4 2 2 2 3 2 3 8 10 4 3 7 4 3 3 5 5 6 6 8 5 8 4 3 3 3 0 10 9 3 2 2 1 5 1 2 2 2 4 1 3 2 6 4 8 5 9 8 13 10 5 6 1 5 8 10 9 6 3 4 6 9 12 14 14 14 14 14 15
3 2 3 3 3 5 7 5 5 5 5 4 6 7 13 7 3 4 2 3 3 2 1 4 7 8 10 9 5 5 3 5 4 3 6 10 8 8 2 4 7 12 8 7 0 3 1 7 6 5 1 2 2 1 1 1 4 4 4 3 1 7 2 7 9 6 2 6 14 5 10 8 4 8 11 9 3 3 4 8 10 13 14 15 13 14 15 15
4 2 4 4 5 6 7 6 5 5 4 7 8 11 10 5 12 7 3 4 0 2 3 6 4 6 3 3 3 7 4 1 6 4 5 5 8 13 6 5 3 10 7 2 5 3 5 5 5 6 4 3 0 3 0 3 3 3 4 2 3 4 4 3 5 3 5 10 10 3 8 11 5 7 7 8 3 3 8 10 13 15 15 14 13 14 16 18
2 3 5 6 5 9 8 7 6 4 5 8 12 15 4 10 5 10 5 5 2 4 5 6 6 5 7 8 9 7 6 4 3 6 7 7 5 6 6 5 7 7 7 0 4 1 4 7 5 2 4 2 2 3 4 3 3 2 1 3 2 4 2 4 3 4 6 10 9 8 10 10 9 11 5 7 2 8 10 12 14 16 16 15 16 18 19 20
2 2 4 6 7 9 8 7 6 5 7 9 11 11 11 15 10 7 6 5 2 4 6 10 9 6 8 9 5 5 9 6 5 8 4 5 7 8 9 7 5 5 3 7 3 1 2 4 1 1 1 4 3 5 7 6 4 5 1 2 2 0 6 6 5 2 3 12 8 8 5 11 6 5 6 0 6 8 9 12 15 16 16 15 16 18 19 20
3 1 6 4 7 7 7 7 4 6 8 15 11 13 2 5 9 6 6 9 5 6 9 8 10 11 11 10 6 8 6 12 9 9 9 4 7 8 9 6 7 8 7 1 1 1 3 4 7 4 3 5 4 9 9 7 7 6 6 7 4 3 1 2 4 3 5 5 7 12 14 2 6 6 3 3 8 5 9 14 15 14 15 17 17 19 19 21
1 3 1 5 8 8 7 4 7 10 11 10 12 13 4 7 5 8 10 9 7 10 10 8 8 11 8 7 11 8 9 8 8 10 7 6 9 8 10 10 10 8 6 3 0 3 1 5 7 3 3 8 5 6 2 6 4 8 8 9 9 7 6 6 8 5 1 5 6 7 14 12 5 3 4 8 2 4 10 14 15 16 17 17 17 20 20 20
4 7 2 8 9 10 8 8 8 7 8 13 13 9 8 5 5 7 7 5 7 6 2 6 11 11 11 11 10 6 5 8 9 7 8 11 8 13 3 8 10 14 10 7 5 1 2 1 2 8 7 7 2 1 4 4 4 3 4 7 6 8 7 7 7 3 1 7 5 9 10 17 8 2 2 3 2 6 11 13 15 15 16 16 18 20 20 20
6 5 3 7 7 9 5 8 6 7 11 7 4 6 5 3 5 7 10 7 4 6 5 8 10 7 11 9 9 11 9 8 7 9 7 8 8 3 4 6 13 8 3 2 5 4 2 1 3 9 1 4 4 3 1 1 1 5 8 8 7 10 12 10 8 4 5 5 6 6 11 10 7 6 4 3 4 9 10 13 15 14 14 16 19 21 20 20
4 4 2 4 4 6 6 12 12 13 11 6 8 13 7 7 9 9 12 11 10 6 11 8 3 14 10 9 9 13 8 5 7 12 10 8 4 4 1 5 8 7 7 5 6 6 4 5 6 2 4 5 4 3 4 4 6 7 7 10 9 6 6 5 1 1 3 10 10 7 17 12 3 4 3 6 9 14 14 14 13 14 14 16 19 20 20 22
2 0 2 4 3 5 11 8 12 11 12 14 12 15 11 5 9 15 13 13 12 13 4 8 10 5 9 5 10 9 10 16 6 6 4 3 2 1 5 1 5 5 3 2 3 4 4 4 7 7 9 9 8 5 6 7 9 7 8 9 11 12 12 5 5 6 10 4 13 14 16 17 11 5 9 12 16 14 14 14 12 12 15 17 17 18 19 19
5 6 5 2 6 5 7 5 5 8 10 12 14 16 12 16 7 11 14 17 16 13 12 3 2 6 9 4 8 9 11 10 13 2 2 4 2 0 2 3 3 2 3 3 2 0 3 2 9 12 12 13 10 3 2 6 5 6 8 12 13 13 12 8 3 7 13 10 14 17 14 19 17 16 18 16 12 15 16 13 13 14 16 17 17 17 19 19
2 9 7 5 4 9 9 7 10 7 11 9 12 7 18 19 10 5 17 10 15 14 6 11 6 5 8 7 11 11 12 11 14 12 12 4 2 2 3 3 3 1 3 1 2 2 0 4 11 13 17 15 9 8 1 6 8 9 9 13 15 15 12 12 12 12 8 5 19 13 14 15 18 18 16 14 15 16 14 12 14 14 16 18 19 20 21 21
8 4 7 10 7 7 12 12 15 12 12 7 17 9 15 14 14 13 8 11 5 12 9 6 13 20 15 15 7 7 8 10 7 13 4 2 5 4 2 4 1 2 3 1 1 2 3 5 7 12 17 15 13 14 7 6 9 9 12 13 15 16 13 16 18 18 10 12 19 11 12 14 16 17 18 16 16 14 12 14 14 16 17 19 21 21 21 20
7 2 4 10 15 13 12 10 17 20 21 20 12 18 21 21 24 18 7 5 6 6 16 11 19 18 18 16 12 13 12 3 9 12 9 6 8 5 4 3 5 3 3 2 1 2 1 8 5 8 11 12 12 12 9 12 12 13 14 14 16 16 18 22 22 21 22 21 20 19 20 23 19 19 17 17 12 9 10 11 13 16 18 20 21 21 20 19
11 10 5 4 8 9 9 10 12 17 18 21 15 19 18 23 28 19 9 11 6 11 12 20 20 10 18 19 17 18 18 17 20 15 7 8 3 4 5 5 4 6 5 5 5 4 6 4 6 4 8 11 11 10 11 12 13 17 17 17 17 16 19 20 19 21 20 23 24 24 24 23 19 17 16 11 8 9 10 13 16 16 17 20 20 20 19 20
4 5 4 6 11 14 12 9 10 13 13 16 21 16 15 25 27 19 14 13 20 11 14 24 20 13 11 17 19 25 23 15 8 8 10 15 11 8 9 4 12 8 10 4 5 3 6 4 4 1 5 9 6 11 12 12 14 18 21 18 17 18 21 19 19 17 18 19 21 20 16 16 14 11 9 9 10 11 12 14 15 14 17 19 19 18 17 20
10 3 5 4 9 9 15 16 16 12 19 17 14 18 17 24 20 11 16 15 20 18 12 15 15 10 16 18 23 21 5 10 10 8 6 6 6 5 3 6 11 10 9 8 5 6 5 4 3 3 4 9 1 3 2 6 11 15 22 18 20 22 21 15 15 15 19 18 15 14 16 13 10 8 11 12 11 11 11 12 12 14 16 17 17 15 17 19
Wind_Direction
357 351 348 348 347 345 343 341 340 339 335 333 330 328 329 332 330 324 322 318 317 319 317 318 318 319 316 312 321 322 329 267 71 49 49 36 327 307 307 310 314 314 313 298 308 272 264 232 319 15 253 247 117 251 87 135 347 261 236 284 250 45 94 54 24 327 325 297 324 346 356 346 325 345 359 321 216 214 255 53 53 85 42 22 24 36 29 32
352 347 347 347 346 344 340 339 339 333 331 329 328 328 332 334 331 323 315 313 318 316 316 317 316 313 318 303 309 323 310 266 68 60 57 331 323 320 317 316 322 323 310 313 8 348 339 350 345 324 297 274 117 324 221 107 299 276 295 267 48 46 65 2 39 329 310 303 329 327 339 14 330 331 4 344 360 2 51 38 22 3 1 10 27 34 32 27
348 348 349 348 346 343 338 338 336 336 332 329 327 333 333 330 330 327 320 312 321 322 316 316 314 308 300 304 298 309 273 234 51 40 31 13 338 329 327 321 323 318 311 338 351 338 348 334 328 321 309 291 150 341 260 80 286 101 312 294 86 47 74 64 74 314 294 305 311 325 331 321 341 323 349 334 322 48 48 23 4 3 354 359 25 35 30 31
349 349 348 347 345 341 339 338 335 334 338 335 326 334 336 341 338 329 325 318 321 321 317 311 310 300 296 294 289 248 237 251 55 355 24 352 338 327 325 319 324 305 282 278 307 310 306 272 289 309 316 263 114 214 250 82 279 64 255 347 90 42 193 119 329 297 295 302 309 313 321 309 77 328 332 354 311 61 48 33 9 355 356 17 36 34 30 31
348 347 348 346 344 342 339 337 335 334 338 336 336 332 329 342 341 338 326 320 320 319 314 312 307 308 302 283 153 188 237 244 58 327 16 345 330 321 314 309 311 308 294 299 263 272 296 287 308 274 260 323 73 245 84 87 44 303 295 73 75 75 138 74 354 306 300 303 292 300 310 339 329 261 1 7 27 48 39 14 8 9 28 40 41 38 39 35
347 346 346 346 343 342 341 338 335 335 336 340 332 328 318 332 338 337 332 327 322 321 313 310 308 310 301 198 191 211 266 301 6 346 342 338 321 308 307 292 294 290 283 291 312 314 322 326 315 329 315 289 2 307 71 20 52 302 135 84 64 54 339 70 277 288 290 299 310 314 341 311 319 337 46 23 53 60 39 24 26 42 48 49 49 45 42 38
346 344 343 343 341 341 341 338 335 335 335 334 333 326 327 323 337 336 329 326 324 320 318 311 307 304 302 232 221 227 82 102 294 356 356 327 311 293 295 270 275 304 311 329 344 337 346 321 321 358 303 247 155 294 4 326 181 255 302 92 108 30 28 143 313 280 284 302 308 316 301 291 302 37 20 76 54 45 59 47 52 60 56 50 51 46 43 39
345 342 341 341 340 340 338 337 336 334 333 330 328 329 328 335 336 336 329 325 321 324 317 312 303 301 263 223 235 109 70 37 1 5 341 319 300 306 300 257 329 319 348 12 349 347 334 342 348 332 245 325 63 305 30 312 213 234 234 60 105 302 132 214 260 274 297 305 308 298 292 290 31 19 183 72 38 60 71 66 67 66 61 54 49 45 41 37
345 342 339 341 341 340 336 335 334 332 330 329 328 333 336 340 337 339 329 323 318 322 317 308 304 301 276 271 292 248 64 4 22 335 336 333 317 303 329 4 344 334 342 347 345 322 299 17 330 14 356 314 84 309 301 318 161 232 328 323 301 254 159 189 182 185 32 325 317 308 310 65 54 213 101 70 49 86 83 82 79 73 66 59 50 43 40 37
346 341 338 339 341 339 337 336 331 330 329 327 327 336 330 342 336 340 329 318 316 320 316 314 311 304 249 241 223 238 81 349 356 348 349 329 306 296 31 10 358 346 333 9 329 352 13 0 345 359 298 255 309 285 16 246 16 314 303 300 277 248 142 175 157 140 143 27 331 315 314 331 153 221 125 90 52 101 94 87 79 74 68 61 55 45 38 36
344 340 338 337 339 339 338 334 330 329 327 326 324 329 343 341 335 337 328 313 307 322 317 318 328 279 242 216 257 96 56 348 23 354 353 332 349 16 15 351 354 347 336 325 25 346 347 301 323 280 235 40 258 235 215 13 350 307 307 291 247 182 145 134 136 154 170 38 330 317 306 291 164 225 97 54 57 103 92 82 76 71 65 57 52 48 38 34
341 339 337 337 338 338 337 332 329 327 326 324 326 326 342 339 332 336 322 311 299 317 326 323 328 295 299 63 49 57 23 354 350 348 349 359 21 355 324 350 349 351 341 328 49 349 324 327 260 253 343 343 275 291 195 124 276 297 305 295 79 135 143 179 148 171 203 1 322 305 292 212 194 122 81 27 40 99 89 81 72 67 64 57 51 48 42 34
339 336 335 337 338 336 334 333 329 326 326 325 324 324 334 340 327 329 317 314 330 319 327 334 329 300 290 102 52 76 347 334 321 305 326 8 49 347 317 351 359 352 352 330 10 21 312 289 262 258 301 283 288 321 74 233 250 250 231 260 259 141 132 156 143 159 173 17 311 322 336 348 132 132 94 129 101 101 90 85 79 75 68 55 48 48 42 39
338 332 332 334 335 334 333 332 329 327 325 325 322 319 328 333 323 312 297 287 312 314 317 321 317 280 262 77 102 53 358 331 285 291 352 319 271 311 298 2 357 343 358 349 61 339 279 284 258 286 345 281 354 50 242 184 180 236 108 275 121 292 132 171 62 159 213 352 276 344 319 304 323 3 180 10 116 107 96 91 84 78 68 59 51 41 44 39
336 331 331 333 334 334 334 331 329 326 324 319 315 316 321 324 318 300 287 262 348 320 302 305 271 268 129 82 104 102 103 263 301 13 0 351 350 290 332 341 280 7 358 29 246 228 270 242 261 238 245 160 267 255 268 216 182 205 215 193 36 33 63 112 61 61 355 0 4 343 297 315 314 344 351 105 113 109 103 99 92 79 68 59 44 40 35 34
334 330 329 330 333 335 334 332 328 327 324 316 316 313 313 310 286 280 282 330 279 302 274 270 15 323 165 148 117 178 227 335 358 354 354 333 355 320 326 305 294 266 233 178 187 224 242 232 256 345 301 199 253 319 306 301 166 188 64 320 329 333 317 274 114 85 51 354 1 14 290 303 300 337 89 108 114 110 112 108 95 82 67 54 47 35 28 21
331 329 328 329 333 335 334 332 328 324 321 319 316 307 310 302 261 225 258 278 266 248 314 341 178 291 276 69 317 221 49 14 344 309 336 51 309 320 318 271 260 277 195 228 217 255 223 233 129 237 212 286 339 322 325 305 306 305 2 322 315 305 320 305 133 72 55 26 317 283 246 268 305 343 119 114 117 120 112 111 99 83 76 59 40 29 23 17
329 329 329 329 333 335 334 332 328 326 323 319 314 295 296 304 178 263 236 228 52 341 19 334 291 188 126 231 196 56 337 288 343 315 284 267 298 330 330 310 258 290 261 248 187 274 138 280 183 304 241 251 9 352 339 315 328 305 321 313 300 301 280 276 285 117 316 13 293 274 265 291 312 352 121 120 116 114 115 106 100 90 68 55 35 22 18 10
328 330 328 331 333 335 334 332 328 325 324 312 297 290 259 195 183 324 31 342 248 256 213 56 340 258 6 76 94 321 338 354 290 290 334 360 317 286 276 252 265 275 284 296 68 330 355 286 222 264 297 359 353 348 308 315 309 287 299 291 286 282 283 289 301 85 52 321 287 294 304 304 308 320 138 124 115 109 115 109 98 88 76 41 22 21 12 1
328 327 328 330 334 333 333 333 325 327 328 327 333 324 291 356 339 179 22 14 59 45 278 303 259 281 240 83 5 334 214 46 261 182 350 338 310 319 275 260 248 225 262 345 322 325 314 308 305 307 346 350 331 319 315 302 302 292 271 273 282 284 284 278 219 104 70 332 281 303 301 303 303 305 144 129 122 115 120 114 93 87 74 47 22 14 7 353
326 326 326 330 333 332 331 331 324 323 324 316 315 1 25 346 332 342 337 325 26 41 302 279 311 292 337 345 344 356 316 196 234 337 20 289 263 304 162 283 290 315 42 340 281 337 251 288 298 60 19 328 316 304 292 289 267 277 289 285 291 295 290 349 305 108 13 3 292 293 308 306 299 306 144 138 130 121 117 108 88 73 45 33 15 1 355 351
322 323 325 326 332 332 330 329 320 315 310 294 22 52 78 71 31 347 302 298 176 134 200 257 325 259 202 249 81 343 305 273 195 6 116 335 248 302 30 314 321 315 342 322 276 273 296 293 82 64 1 315 233 268 261 283 291 287 284 296 294 302 352 308 131 105 338 307 297 322 309 305 305 139 153 148 125 110 93 89 72 50 42 30 7 1 355 352
322 320 323 325 328 331 331 320 317 308 341 10 41 62 60 45 350 351 289 252 269 161 200 198 204 203 153 106 98 193 250 242 321 54 357 338 306 11 312 327 336 319 307 297 328 318 303 58 86 34 119 234 236 224 278 279 264 267 282 286 297 332 357 308 241 350 324 299 308 321 298 303 121 136 139 136 131 118 121 105 93 58 44 21 10 10 359 357
318 320 322 324 327 330 326 324 296 287 41 59 65 56 63 355 340 293 264 270 317 150 231 76 336 318 96 345 102 278 293 73 256 53 32 356 337 3 277 6 321 308 304 27 316 283 275 326 93 102 152 262 293 297 272 288 296 301 262 279 295 335 328 310 308 314 304 58 51 332 305 290 150 159 164 150 131 151 138 122 118 111 63 30 18 14 360 353
317 318 322 323 324 330 331 320 311 32 280 110 72 102 28 17 329 335 289 275 203 227 81 211 199 253 94 171 195 283 87 113 353 19 17 352 334 275 20 328 284 304 331 43 303 270 265 64 29 166 227 270 291 289 306 357 295 304 99 23 10 327 312 312 315 327 323 315 100 20 327 302 175 188 174 151 170 169 148 158 116 71 41 24 14 359 354 346
317 316 321 325 325 330 325 285 92 355 341 51 47 113 30 37 315 302 295 272 282 105 250 156 203 127 258 144 124 6 9 241 52 45 20 20 305 291 321 263 90 302 343 319 306 291 317 91 301 293 247 295 280 277 301 51 292 294 31 336 359 312 307 311 324 332 309 314 316 4 285 287 262 252 157 174 178 161 168 152 106 55 29 22 5 349 352 347
314 313 321 326 329 332 296 353 64 202 251 120 139 109 65 349 61 260 283 216 250 114 168 29 259 94 306 58 308 124 246 109 130 101 193 23 331 233 294 296 194 181 40 324 295 257 136 148 131 260 291 276 290 278 89 324 326 283 61 312 337 311 310 314 308 294 286 296 295 273 241 265 286 280 153 169 175 176 176 111 75 47 14 8 355 352 353 354
310 310 318 326 327 336 351 321 215 216 41 79 120 97 292 158 200 234 242 314 254 110 126 167 45 35 294 92 103 266 18 80 230 144 320 44 269 192 223 290 292 307 126 235 275 47 325 39 247 254 253 279 279 23 63 186 250 331 360 359 301 297 290 284 287 295 295 306 290 275 218 250 256 229 151 170 191 184 173 101 51 22 9 358 357 355 350 351
299 306 316 324 323 306 298 302 301 32 96 116 133 196 97 176 230 306 310 267 85 153 360 109 323 198 166 151 214 235 250 145 281 69 180 251 54 319 281 2 355 296 213 235 263 268 58 39 51 346 338 278 55 61 71 341 250 78 332 271 252 248 254 255 275 292 298 302 275 260 210 239 266 251 190 187 234 234 253 18 16 12 1 358 355 348 350 352
291 301 316 333 318 253 237 241 55 83 114 117 116 172 165 190 232 231 237 252 73 197 135 74 234 104 300 273 222 178 218 177 247 114 186 279 87 210 107 356 272 260 259 234 244 266 103 123 246 226 266 346 64 82 346 47 329 297 273 280 271 257 270 271 271 286 303 261 263 233 205 226 281 265 259 234 183 154 359 339 358 357 358 354 352 352 350 344
277 303 322 329 288 6 325 224 127 155 131 137 142 172 202 225 261 299 238 232 30 113 78 177 155 162 257 252 267 144 238 186 194 214 238 166 198 204 205 224 148 256 242 246 241 230 216 168 202 151 2 248 138 193 200 254 270 283 290 300 306 287 272 272 249 253 252 274 86 114 146 216 242 247 149 128 105 90 20 351 341 352 349 350 352 351 343 336
255 299 342 312 8 324 288 7 124 138 152 152 193 200 237 282 188 208 247 98 264 137 207 112 70 314 72 93 253 264 292 263 174 225 277 355 288 272 233 271 337 303 278 214 257 100 242 216 95 106 268 203 192 248 200 213 233 249 268 278 336 305 323 291 154 241 216 256 111 102 88 284 239 242 81 138 138 131 67 21 6 354 348 352 351 341 334 332
229 226 12 264 312 248 313 54 131 144 143 178 210 237 256 246 265 215 238 137 260 38 151 353 90 188 118 299 258 231 94 260 131 174 108 145 250 247 80 235 67 249 280 333 315 287 284 75 142 147 156 202 239 223 202 224 186 234 237 305 322 302 305 282 281 273 270 252 131 181 20 276 277 267 253 177 140 100 64 28 16 358 354 348 341 333 330 331
179 175 246 64 287 307 148 175 159 158 158 192 238 215 223 233 239 52 274 221 320 129 81 153 170 152 208 244 290 131 280 176 232 184 182 199 188 255 191 197 176 228 219 293 279 292 293 267 184 177 190 125 216 252 348 348 23 201 39 268 257 259 270 287 315 303 299 284 292 297 338 247 325 25 100 121 132 115 53 8 7 357 347 341 333 326 328 329
134 222 258 250 247 230 202 193 175 190 226 235 218 218 231 238 252 261 236 222 162 188 170 108 250 241 250 228 197 194 222 282 164 150 211 202 239 230 251 189 192 211 221 270 239 320 226 252 77 17 28 191 186 47 286 345 231 138 325 55 220 237 239 257 310 307 306 308 307 189 208 190 289 91 109 137 131 181 44 356 351 349 339 337 330 329 329 328
166 197 181 236 213 174 185 182 183 191 226 221 219 222 224 217 254 136 265 49 82 258 85 216 214 258 258 260 143 187 101 237 133 189 234 208 237 258 165 157 181 185 191 208 206 270 189 250 111 122 306 105 57 339 188 279 241 131 153 209 81 32 317 284 294 265 9 276 258 194 260 257 246 174 141 159 159 219 333 345 348 338 335 331 329 330 327 327
245 136 233 182 210 166 173 176 183 197 224 227 223 237 234 247 240 250 168 193 112 4 304 300 261 191 279 265 193 189 170 162 223 202 270 130 249 211 209 183 117 186 225 193 257 195 249 293 165 155 192 86 24 333 255 348 313 116 231 157 114 96 87 241 277 303 275 267 270 205 247 277 275 285 142 176 147 288 332 344 341 332 333 331 330 327 328 326
193 240 281 247 172 154 167 174 184 224 228 218 232 240 208 242 180 221 108 116 157 156 249 232 252 173 263 251 266 160 155 219 144 157 263 169 282 105 170 180 183 201 178 55 215 339 76 283 167 288 89 114 257 198 214 176 339 285 26 27 224 249 292 176 111 263 275 263 291 277 281 261 246 256 146 211 270 332 334 336 332 332 334 334 331 329 327 327
245 280 250 133 121 152 158 172 214 212 200 228 232 252 232 234 233 203 162 180 113 162 240 230 243 215 229 253 259 128 158 245 193 216 258 205 226 167 189 154 186 173 103 127 204 109 296 221 306 133 49 134 201 194 235 180 150 97 108 236 72 224 236 220 216 272 272 274 310 275 324 280 218 268 133 195 335 332 330 330 332 331 333 333 332 328 329 328
198 190 227 117 154 140 154 184 205 205 212 226 224 232 100 228 213 176 176 184 210 198 233 252 222 254 242 251 236 259 215 218 237 251 204 208 247 147 186 167 165 159 143 286 125 30 216 163 267 112 338 113 226 193 225 194 181 181 193 222 152 207 162 305 287 179 230 270 264 292 293 281 89 95 130 308 325 337 333 330 330 329 329 332 330 329 328 328
245 270 192 158 148 154 151 199 198 201 218 236 242 243 173 225 185 196 200 200 241 217 251 240 230 228 245 259 245 204 248 230 222 235 209 237 211 271 177 167 142 136 120 58 35 217 166 200 228 143 210 203 209 32 13 352 231 200 193 213 195 197 198 208 256 142 113 224 253 259 267 273 164 156 325 325 330 320 329 330 326 327 329 330 329 327 328 326
180 229 175 156 161 165 180 180 213 207 226 224 227 207 243 181 243 189 176 197 221 232 164 268 250 253 253 246 259 253 244 255 232 207 226 237 211 221 62 155 149 145 149 178 192 239 157 360 227 238 216 222 111 46 350 290 343 278 238 226 217 226 182 210 242 205 157 236 232 255 290 279 130 167 204 237 243 314 326 329 325 325 326 327 326 325 324 324
203 239 39 172 168 175 188 237 194 203 226 237 38 258 210 194 222 189 191 175 219 216 239 227 223 213 235 231 245 251 220 248 201 203 241 220 241 37 132 149 133 148 48 104 40 218 46 155 251 254 213 99 165 124 131 31 259 271 242 224 225 210 197 204 223 277 268 244 221 243 247 244 95 150 185 181 277 309 326 328 325 324 322 325 324 323 324 322
205 199 160 210 201 200 197 213 212 219 231 228 214 245 187 236 205 193 210 183 189 188 217 224 238 213 251 200 219 243 182 264 211 221 244 209 230 66 110 144 147 168 167 202 157 180 137 202 155 253 271 218 189 216 218 175 198 231 213 205 200 201 203 227 318 63 263 229 209 211 249 267 59 131 240 214 287 319 324 325 328 322 323 324 325 323 324 325
141 46 119 151 199 212 207 223 233 235 223 229 227 233 216 232 223 216 200 211 200 220 158 239 219 165 215 180 225 233 208 211 281 206 225 213 163 39 353 109 334 150 34 352 22 169 210 194 160 198 216 236 233 210 215 192 207 218 226 200 198 198 194 145 222 201 234 208 210 228 250 263 270 254 251 276 305 307 314 321 323 321 320 322 321 321 321 319
191 226 143 150 186 241 271 322 312 254 251 239 240 239 219 235 198 199 212 234 215 210 212 196 70 205 215 140 234 226 231 211 218 241 158 206 140 204 147 24 30 52 55 51 19 225 202 289 233 223 233 242 261 22 111 131 168 191 204 196 204 205 203 196 203 224 229 249 252 239 242 273 273 275 277 289 295 308 314 319 319 319 318 318 318 321 321 320
145 227 153 176 159 228 236 215 232 229 238 228 254 237 241 233 217 210 191 238 219 216 213 219 183 176 210 178 223 242 224 219 221 247 235 178 111 126 79 119 27 339 18 75 16 66 289 234 234 239 249 255 277 301 145 177 225 225 208 216 210 204 191 198 202 227 205 264 260 244 243 253 267 274 276 292 307 310 313 317 317 317 319 320 324 322 320 319
222 216 170 175 183 200 210 224 221 230 246 220 245 250 251 249 231 235 171 212 67 200 207 220 217 215 209 206 199 238 218 198 196 232 202 132 113 138 93 104 192 119 159 45 328 223 220 248 237 227 248 256 264 270 241 228 236 237 241 234 226 211 199 208 222 226 200 217 249 270 273 269 273 277 286 299 306 308 312 315 316 315 315 319 321 321 321 321
229 354 226 163 216 231 199 179 183 212 227 224 243 236 243 243 246 233 159 175 183 230 198 240 227 204 215 219 210 244 220 139 234 224 210 179 171 128 161 29 232 146 181 124 217 250 65 255 235 243 266 259 254 251 253 263 266 259 246 238 235 223 216 217 224 225 224 238 250 268 272 270 274 275 287 296 298 304 311 311 311 315 319 321 320 318 319 323
197 185 192 259 257 246 226 176 184 198 224 216 224 226 229 232 242 235 205 172 198 223 196 227 243 168 207 217 218 231 224 211 232 239 181 139 139 165 191 177 139 146 169 183 170 274 168 273 109 232 257 260 249 247 252 256 263 265 257 247 240 234 237 234 230 228 233 247 252 255 261 268 266 272 280 284 301 309 305 310 314 316 318 320 318 317 319 325
211 199 139 180 216 229 228 194 196 200 221 221 221 227 227 231 237 222 231 198 208 198 173 218 227 230 215 223 226 235 237 241 243 250 150 170 190 178 163 214 143 162 171 174 187 237 194 248 103 216 276 273 230 226 243 258 266 268 262 244 235 229 238 234 233 224 222 234 245 252 257 257 265 272 285 304 303 304 309 312 315 318 315 315 313 313 319 321
214 348 232 200 242 192 218 218 228 223 235 222 202 212 217 226 227 203 248 229 221 217 203 200 216 203 235 237 234 237 247 82 92 71 103 61 63 149 160 143 163 157 171 185 167 170 194 186 197 197 244 272 339 189 287 296 300 272 248 227 223 229 230 236 239 226 223 224 237 241 243 251 270 295 298 291 297 300 304 312 315 309 308 309 309 314 319 320